Miscellaneous Local Product
Issued by NWS Hastings, NE

Home | Current Version | Previous Version | Graphics & Text | Print | Product List | Glossary On
Versions: 1 2 3 4 5 6 7 8 9 10 11 12 13 14 15 16 17 18 19 20 21 22 23 24 25 26 27 28 29 30 31 32 33 34 35 36 37 38 39 40 41 42 43 44 45 46 47 48 49 50
000
AXUS43 KGID 201602
MISGRI

GID CWA HOURLY WEATHER ROUNDUP
NATIONAL WEATHER SERVICE HASTINGS NE
1100 AM CDT MON APR 20 2015

NOTE: "FAIR" INDICATES FEW OR NO CLOUDS BELOW 12,000 FEET WITH NO
SIGNIFICANT WEATHER AND/OR OBSTRUCTIONS TO VISIBILITY.

...SOUTH CENTRAL NEBRASKA...

CITY           SKY/WX    TMP DP  RH WIND       PRES   REMARKS
GRAND ISLAND   SUNNY     50  26  39 NW22G30   29.92S
HASTINGS       SUNNY     50  30  46 NW21G29   29.92F
KEARNEY        SUNNY     48  27  43 NW18G25   29.94S
ORD            SUNNY     49  25  39 NW22G31   29.88F
YORK           SUNNY     48  28  46 NW26G35   29.89R
AURORA         SUNNY     48  28  45 NW25G31   29.91S
LEXINGTON      SUNNY     47  34  59 NW16      29.96S
HOLDREGE       SUNNY     48  28  46 NW15      29.95F
HEBRON         SUNNY     50  20  31 NW20G31   29.92S

...NEBRASKA PANHANDLE...

CITY           SKY/WX    TMP DP  RH WIND       PRES   REMARKS
CHADRON        SUNNY     47  23  38 NW17G24   29.97F
ALLIANCE       SUNNY     46  22  38 W21G28    29.96F
SCOTTSBLUFF    SUNNY     46  29  51 W10       29.99F
SIDNEY         SUNNY     45  23  42 W15       30.00F

...WESTERN AND NORTH CENTRAL NEBRASKA...

CITY           SKY/WX    TMP DP  RH WIND       PRES   REMARKS
VALENTINE      MOSUNNY   48  19  31 NW21G30   29.89F
AINSWORTH      SUNNY     48  19  31 NW20G31   29.89S
ONEILL         SUNNY     47  25  41 NW24G36   29.86S
BROKEN BOW     SUNNY     49  21  33 NW23G32   29.91F
IMPERIAL       SUNNY     48  25  40 NW14      30.00S
NORTH PLATTE   SUNNY     50  24  36 NW20G28   29.96F
MCCOOK         SUNNY     52  26  36 NW16G22   29.98F

...EASTERN NEBRASKA...

CITY           SKY/WX    TMP DP  RH WIND       PRES   REMARKS
NORFOLK        NOT AVBL
SO SIOUX CITY  LGT RAIN  48  27  44 NW29G45   29.75S
TEKAMAH        PTSUNNY   49  33  54 NW30G39   29.79F
COLUMBUS       SUNNY     48  25  40 NW26G38   29.87S
ALBION         SUNNY     46  23  39 NW23G31   29.86F
OMAHA EPPLEY   PTSUNNY   48  32  53 NW22G33   29.80S
OFFUTT AFB     MOSUNNY   49  33  53 NW26G33   29.81R
MILLARD        PTSUNNY   48  32  53 NW26      29.82S
LINCOLN        SUNNY     50  27  40 NW24G35   29.87S
NEBRASKA CITY  PTSUNNY   48  30  50 NW23G30   29.83S
BEATRICE       SUNNY     49  26  41 NW29G35   29.88S
FALLS CITY     PTSUNNY   50  35  56 W26G37    29.85R

...NORTHERN KANSAS...

CITY           SKY/WX    TMP DP  RH WIND       PRES   REMARKS
GOODLAND       MOSUNNY   49  28  44 NW15      30.02F
HILL CITY      SUNNY     52  28  39 NW10      30.00F
NORTON         SUNNY     54  25  32 W16G24    29.98S
PHILLIPSBURG   SUNNY     54  30  40 W18       29.98S
SMITH CENTER   SUNNY     52  27  37 NW17G28   29.98S
BELOIT         SUNNY     54  28  37 NW15G22   29.96S
HAYS           SUNNY     55  25  30 NW15G23   30.00S
RUSSELL        SUNNY     55  28  35 NW21G28   29.98S
CONCORDIA      SUNNY     52  26  36 NW21G29   29.95R
SALINA         SUNNY     56  31  38 NW22G29   29.98R
TOPEKA         MOSUNNY   53  33  46 NW20G30   29.90R



USA.gov is the U.S. government's official web portal to all federal, state and local government web resources and services.